Weather Roundup
Issued by NWS Chicago, IL

Home | Current Version | Previous Version | Text Only | Print | Product List | Glossary Off
Versions: 1 2 3 4 5 6 7 8 9 10 11 12 13 14 15 16 17 18 19 20 21 22 23 24 25 26 27 28 29 30 31 32 33 34 35 36 37 38 39 40 41 42 43 44 45 46 47 48 49 50

000
NZUS59 KLOT 301708
HRRLOT

CHICAGO AREA WEATHER ROUNDUP
NATIONAL WEATHER SERVICE CHICAGO/ROMEOVILLE IL
1200 PM CDT SUN APR 30 2017

NOTE: "FAIR" INDICATES FEW OR NO CLOUDS BELOW 12,000 FEET WITH NO
SIGNIFICANT WEATHER AND/OR OBSTRUCTIONS TO VISIBILITY.

* THESE STATIONS ARE NOT UNDER NWS QUALITY CONTROL. THEY ALSO MAY NOT
  REPORT WEATHER SUCH AS PRECIPITATION OR FOG.

ILZ005-006-012>014-019>023-301800-
NORTHEAST ILLINOIS

CITY           SKY/WX    TMP DP  RH WIND       PRES   REMARKS
OHARE          RAIN      45  43  93 N13       29.84R FOG
MIDWAY         CLOUDY    47  46  97 N12G17    29.82F FOG
AURORA         LGT RAIN  47  45  93 N12       29.84F FOG
LANSING*       HVY RAIN  49  49 100 N6        29.82R
JOLIET*        HVY RAIN  48  47  98 N8        29.82S
WAUKEGAN       LGT RAIN  43  43 100 N13G21    29.86R VSB 1
DUPAGE AIRPORT RAIN      46  45  96 N13       29.83S FOG
WHEELING       LGT RAIN  44  44 100 NE9       29.87R FOG
KANKAKEE*      CLOUDY    56  55  97 CALM      29.79S
MORRIS*        DRIZZLE   47  46  96 N6        29.81S
LEWIS AIRPORT* DRIZZLE   46  46 100 N8        29.83R
NORTHERLY ISL    N/A     45  43  93 N12         N/A
$$

WIZ051-052-058>065-066-070>072-301800-
SOUTHEAST WISCONSIN

CITY           SKY/WX    TMP DP  RH WIND       PRES   REMARKS
MILWAUKEE      LGT RAIN  42  41  96 NE16      29.92S VSB 3/4
KENOSHA*       LGT RAIN  43  41  93 NE13      29.89S FOG
RACINE*        LGT RAIN  43  41  93 N14       29.92R FOG
WAUKESHA       CLOUDY    39  39 100 NE10G16   29.93R FOG
WEST BEND      DRIZZLE   39  39 100 NE14G20   29.95R
$$

INZ001>003-010>013-019-020-301800-
NORTHWEST INDIANA

CITY           SKY/WX    TMP DP  RH WIND       PRES   REMARKS
GARY*          RAIN      52  50  93 NW8       29.80R FOG
MICHIGAN CITY* NOT AVBL
RENSSELAER*    NOT AVBL
VALPARAISO     CLOUDY    53  52  96 E5        29.78F
$$

LMZ740>746-301800-
SOUTHERN LAKE MICHIGAN

STATION/POSITION TIME  SKY/WX   TEMP WIND        PRES    VSBY
                                AIR  DIR/SP/G
                 (UTC)          (F)  (DEG/KT/KT) (MB)    (MI)
HARRISON CRIB    1630            45  350/ 16/ 18   N/A
BURNHAM HARBOR   1700            45  350/  8/ 12   N/A
CALUMET HARBOR   1648            46  330/  8/ 11 1009.4R
BURNS HARBOR     1640            51  280/  9/ 10 1010.2R
MICHIGAN CITY    1640            51  120/  7/  9   N/A
$$

ABBREVIATIONS USED IN REMARKS
   TC - TEMPERATURE IN CELSIUS
  WCI - WIND CHILL INDEX
   HX - HEAT INDEX
  VSB - VISIBILITY
$$



USA.gov is the U.S. government's official web portal to all federal, state and local government web resources and services.